Location: Devore Heights
(34.2372°N, 117.4156°W)
Time: 15:58:02
(UTC+00:00)

Tiros 1 despin weight - Pass Details

Date: 18 September 2024
Orbit: 572 x 614 km, 48.2° (Epoch: 12 October)

Event Time Altitude Azimuth Distance (km) Brightness Sun altitude
Exits shadow 12:20:33 - 318° (NW) 2,170 ? -16.1°
Reaches altitude 10° 12:21:28 10° 327° (NNW) 1,975 ? -15.9°
Maximum altitude 12:23:48 14° 358° (N) 1,744 ? -15.5°
Drops below altitude 10° 12:26:07 10° 29° (NNE) 1,978 ? -15.0°
Sets 12:29:33 0° 55° (NE) 2,883 ? -14.3°
